Terug naar catalogus

BPA 3/SL-24

ActiefWetenschapPO
NORAD 39448·PAYLOAD·🇺🇦 Ukraine

Gelanceerd Nov 21, 2013 vanaf Dombarovsky

Loading…

Volgende Passages (komende 24 uur)

TLE

VersSource: Space-Track

Epoch: Sep 14, 2026, 07:31 UTC

1 39448U 13066AJ  26257.31358312  .00000100  00000-0  55577-4 0  9996
2 39448  97.6884  42.5938 0677893 149.4655 214.7840 13.43262063627851

Volg BPA 3/SL-24 in realtime met AllMySat

Download on the App Store